FREGAT DEB, 45851

Orbit data source: Space-Track

FREGAT DEB, 45851 is space debris in LEO originally from a launch on Mon, 18 Jul 2011 UTC launched from the Tyuratam Missile And Space Complex (TTMTR). Debris objects in space refer to the collection of defunct objects orbiting the Earth. Examples of debris include non-operational satellites, rocket bodies, and fragments generated from explosions, collisions, or faulty payload assembly.

Loading next visibility...
Identifier
45851, 2011-037CM
Orbit
LEO
Country
Flag of CISCIS
Related business
Manufacturer
Lavochkin
Mission
Spacecraft
Bus & Motor
Unknown
Mass
Unknown
Launch date (UTC)
2011-07-18 (14 years ago)
Launch vehicle
Unknown
Launch site
Tyuratam Missile And Space Complex (TTMTR)
Object type
Payload
Rocket body
Debris
Shape & HBR
Unknown shape, 0.1 m
Radar Cross Section
Small (<0.1 m²)

Expand to show TLE details & history
Last TLE update: 19 hours ago

TLE from 19 hours ago
0 FREGAT DEB
1 45851U 11037CM  25293.31253287  .00010008  00000-0  15003-1 0  9996
2 45851  51.7285 308.1876 1814273  46.2684 327.4731 10.84833638211333
Epoch: 2025-10-20T07:30Z
TLE epoch observation values (Epoch: 2025-10-20T07:30:02.839Z)
Latitude
-0.00009°
Longitude
166.65905°
Altitude
1,028.113 km
Speed
7.838 km/s
True Right ascension
20h 32m 45s
True Declination
0° 00' 00"
Sunlit
Object was in daylight at epoch
Visualization orbit readout
Latitude
Unknown
Longitude
Unknown
Altitude
Unknown
Speed
Unknown
Apparent Right ascension
Unknown
Apparent Declination
Unknown
Sunlit
N/A
Visualization observer readout
Local Sidereal Time
21:49:41
Azimuth
Unknown
Elevation
Unknown
Doppler factor
Unknown
Orbital elements
Apogee altitude
3,805.919 km
Perigee altitude
678.065 km
Semi-major axis
8,620.129 km
Eccentricity
0.18143
Inclination
51.7285°
RAAN
308.1876°
Arg. of periapsis
46.2684°
True anomaly
313.81618°
Mean anomaly
327.4731°
Eccentric anomaly
320.92003°
Mean motion
2.71189 °/min
Orbital period
132.75 mins
BSTAR
0.015003
Loading maneuver chart data...
Computing Atmospheric mass density...
Loading historical data...
Loading historical data...
Loading historical data...
Loading historical data...
Loading historical data...
Loading historical data...
Loading historical data...

Documentation

Showing up to 5 results
|